CDT,Max TemperatureF,Mean TemperatureF,Min TemperatureF,Max Dew PointF,MeanDew PointF,Min DewpointF,Max Humidity, Mean Humidity, Min Humidity, Max Sea Level PressureIn, Mean Sea Level PressureIn, Min Sea Level PressureIn, Max VisibilityMiles, Mean VisibilityMiles, Min VisibilityMiles, Max Wind SpeedMPH, Mean Wind SpeedMPH, Max Gust SpeedMPH,PrecipitationIn, CloudCover, Events, WindDirDegrees
2013-10-1,72,59,45,50,39,32,77,51,24,29.96,29.80,29.51,,,,23,12,31,0.00,,,293
2013-10-2,68,55,41,51,44,38,100,70,40,29.96,29.92,29.86,,,,14,6,20,0.09,,,100
2013-10-3,54,49,43,53,48,43,100,95,89,30.04,29.96,29.91,,,,13,8,18,0.54,,,10
2013-10-4,52,50,47,51,49,46,100,93,86,30.04,29.97,29.83,,,,20,11,29,1.13,,,42
2013-10-5,52,47,41,52,43,37,100,83,66,29.83,29.76,29.68,,,,22,8,30,0.25,,,117
2013-10-6,60,52,43,46,41,35,100,70,39,29.92,29.87,29.81,,,,23,14,30,0.20,,,340
2013-10-7,71,54,37,45,40,36,93,62,31,29.96,29.90,29.82,,,,15,5,22,0.00,,,195
2013-10-8,75,61,47,49,45,43,86,62,38,29.79,29.66,29.60,,,,24,10,33,0.00,,,206
2013-10-9,74,61,47,52,48,44,93,67,41,29.95,29.89,29.75,,,,10,5,14,0.00,,,3
2013-10-10,78,62,45,54,51,45,100,71,42,29.89,29.77,29.65,,,,17,6,23,0.00,,,176
2013-10-11,68,59,49,58,51,42,93,74,55,29.67,29.51,29.34,,,,33,17,45,0.11,,,183
2013-10-12,59,50,40,42,37,29,83,59,35,30.24,29.90,29.58,,,,31,18,40,0.01,,,301
2013-10-13,58,44,30,39,34,30,92,65,38,30.40,30.35,30.24,,,,10,3,15,0.00,,,218
2013-10-14,46,45,43,44,41,37,100,86,71,30.33,30.12,29.88,,,,21,12,30,2.64,,,126
2013-10-15,45,41,36,44,42,37,100,93,86,30.06,29.91,29.78,,,,25,17,35,0.67,,,24
2013-10-16,57,43,28,38,34,29,100,70,40,30.06,29.96,29.84,,,,17,7,22,0.00,,,271
2013-10-17,47,41,34,42,37,29,92,81,70,30.02,29.92,29.81,,,,23,10,32,0.11,,,341
2013-10-18,51,41,30,35,32,28,92,71,50,30.04,29.97,29.82,,,,18,8,24,0.00,,,291
2013-10-19,48,39,30,37,30,25,92,67,42,29.82,29.79,29.73,,,,22,10,28,0.01,,,321
2013-10-20,43,38,32,40,34,25,100,85,69,30.02,29.78,29.61,,,,23,10,30,0.11,,,11
2013-10-21,42,32,21,26,23,20,96,70,43,30.05,30.02,29.98,,,,17,7,21,0.00,,,335
2013-10-22,40,31,22,29,26,19,92,76,59,30.14,30.10,30.03,,,,13,5,16,0.00,,,333
2013-10-23,42,37,31,31,27,21,92,69,46,30.23,30.14,30.07,,,,21,10,25,0.00,,,344
2013-10-24,41,34,26,30,27,25,92,76,59,30.37,30.32,30.22,,,,21,9,25,0.00,,,319
2013-10-25,62,43,23,43,32,23,92,70,47,30.35,30.05,29.83,,,,28,12,36,0.00,,,250
2013-10-26,45,36,27,31,26,24,85,67,49,30.22,30.13,29.99,,,,21,11,28,0.00,,,329
2013-10-27,52,42,32,32,29,26,75,60,44,30.25,29.96,29.78,,,,26,15,35,0.00,,,347
2013-10-28,39,31,22,27,23,20,96,74,52,30.53,30.46,30.28,,,,15,7,18,0.00,,,30
2013-10-29,33,31,29,33,30,25,100,89,78,30.47,30.29,30.14,,,,13,4,15,0.17,,,73
2013-10-30,37,35,32,37,34,32,100,96,92,30.13,29.93,29.75,,,,9,2,13,0.01,,,319
2013-10-31,43,40,36,37,35,33,100,88,76,29.72,29.56,29.47,,,,15,7,22,0.00,,,303